,,,PA_Meas_PMT16A,,PR_Meas_QMR101_102,,RH_Meas_QMH101,,SR_Meas_QMS101,,TA_Meas_QMH101,,GenWind,,GenWind,
date,time,status,PA,status,PR,status,RH,status,SR,status,TA,status,DirAvg,status,SpdAvg,
2015-01-03, 00:00:04,VALID,1010.42,VALID,0,INVALID,139.269,VALID,0,VALID,23.0316,VALID,349,VALID,0,
2015-01-03, 00:01:04,VALID,1010.44,VALID,0,INVALID,139.193,VALID,0,VALID,23.0316,VALID,349,VALID,0,
2015-01-03, 00:02:04,VALID,1010.44,VALID,0,INVALID,139.071,VALID,0,VALID,23.0511,VALID,349,VALID,0,
2015-01-03, 00:03:04,VALID,1010.43,VALID,0,INVALID,138.941,VALID,0,VALID,23.0705,VALID,349,VALID,0,
2015-01-03, 00:04:04,VALID,1010.42,VALID,0,INVALID,138.834,VALID,0.112112,VALID,23.09,VALID,349,VALID,0,
2015-01-03, 00:05:04,VALID,1010.41,VALID,0,INVALID,138.712,VALID,0,VALID,23.09,VALID,349,VALID,0,
2015-01-03, 00:06:04,VALID,1010.4,VALID,0,INVALID,138.606,VALID,0,VALID,23.09,VALID,349,VALID,0,
2015-01-03, 00:07:04,VALID,1010.41,VALID,0,INVALID,138.522,VALID,0,VALID,23.0705,VALID,349,VALID,0,
2015-01-03, 00:08:04,VALID,1010.45,VALID,0,INVALID,138.453,VALID,0.112112,VALID,23.0705,VALID,349,VALID,0,
2015-01-03, 00:09:04,VALID,1010.45,VALID,0,INVALID,138.392,VALID,0,VALID,23.0511,VALID,349,VALID,0,
2015-01-03, 00:10:05,VALID,1010.45,VALID,0,INVALID,138.293,VALID,0,VALID,23.0511,VALID,349,VALID,0,
2015-01-03, 00:11:05,VALID,1010.46,VALID,0,INVALID,138.179,VALID,0,VALID,23.0511,VALID,349,VALID,0,
2015-01-03, 00:12:05,VALID,1010.44,VALID,0,INVALID,138.133,VALID,0,VALID,23.0511,VALID,349,VALID,0,
2015-01-03, 00:13:05,VALID,1010.45,VALID,0,INVALID,138.041,VALID,0,VALID,23.0511,VALID,349,VALID,0,
2015-01-03, 00:14:05,VALID,1010.42,VALID,0,INVALID,137.98,VALID,0,VALID,23.0511,VALID,349,VALID,0,
2015-01-03, 00:15:05,VALID,1010.42,VALID,0,INVALID,137.942,VALID,0,VALID,23.0316,VALID,349,VALID,0,
2015-01-03, 00:16:05,VALID,1010.41,VALID,0,INVALID,137.858,VALID,0,VALID,23.0511,VALID,349,VALID,0,
2015-01-03, 00:17:05,VALID,1010.42,VALID,0,INVALID,137.79,VALID,0,VALID,23.0511,VALID,349,VALID,0,
2015-01-03, 00:18:05,VALID,1010.41,VALID,0,INVALID,137.713,VALID,0.112112,VALID,23.0511,VALID,349,VALID,0,
2015-01-03, 00:19:05,VALID,1010.39,VALID,0,INVALID,137.652,VALID,0,VALID,23.0511,VALID,349,VALID,0,
2015-01-03, 00:20:05,VALID,1010.42,VALID,0,INVALID,137.561,VALID,0,VALID,23.0511,VALID,349,VALID,0,
2015-01-03, 00:21:05,VALID,1010.43,VALID,0,INVALID,137.508,VALID,0,VALID,23.0511,VALID,349,VALID,0,
2015-01-03, 00:22:05,VALID,1010.41,VALID,0,INVALID,137.477,VALID,0,VALID,23.0511,VALID,349,VALID,0,
2015-01-03, 00:23:05,VALID,1010.44,VALID,0,INVALID,137.393,VALID,0,VALID,23.0511,VALID,349,VALID,0,
2015-01-03, 00:24:05,VALID,1010.43,VALID,0,INVALID,137.34,VALID,0,VALID,23.0316,VALID,349,VALID,0,
2015-01-03, 00:25:05,VALID,1010.42,VALID,0,INVALID,137.264,VALID,0,VALID,23.0511,VALID,349,VALID,0,
2015-01-03, 00:26:05,VALID,1010.41,VALID,0,INVALID,137.195,VALID,0,VALID,23.0705,VALID,349,VALID,0,
2015-01-03, 00:27:05,VALID,1010.38,VALID,0,INVALID,137.149,VALID,0,VALID,23.0511,VALID,349,VALID,0,
2015-01-03, 00:28:05,VALID,1010.36,VALID,0,INVALID,137.103,VALID,0,VALID,23.0705,VALID,349,VALID,0,
2015-01-03, 00:29:05,VALID,1010.35,VALID,0,INVALID,137.05,VALID,0,VALID,23.0705,VALID,349,VALID,0,
2015-01-03, 00:30:05,VALID,1010.37,VALID,0,INVALID,137.035,VALID,0,VALID,23.0705,VALID,349,VALID,0,
2015-01-03, 00:31:05,VALID,1010.36,VALID,0,INVALID,136.951,VALID,0,VALID,23.0705,VALID,349,VALID,0,
2015-01-03, 00:32:05,VALID,1010.37,VALID,0,INVALID,136.936,VALID,0,VALID,23.0511,VALID,349,VALID,0,
2015-01-03, 00:33:05,VALID,1010.34,VALID,0,INVALID,136.951,VALID,0,VALID,23.0511,VALID,349,VALID,0,
2015-01-03, 00:34:05,VALID,1010.36,VALID,0,INVALID,136.928,VALID,0,VALID,23.0316,VALID,349,VALID,0,
2015-01-03, 00:35:05,VALID,1010.38,VALID,0,INVALID,136.959,VALID,0,VALID,23.0316,VALID,349,VALID,0,
2015-01-03, 00:36:05,VALID,1010.39,VALID,0,INVALID,136.936,VALID,0,VALID,23.0121,VALID,349,VALID,0,
2015-01-03, 00:37:05,VALID,1010.37,VALID,0,INVALID,136.943,VALID,0,VALID,23.0121,VALID,349,VALID,0,
2015-01-03, 00:38:05,VALID,1010.35,VALID,0,INVALID,136.989,VALID,0,VALID,22.9926,VALID,349,VALID,0,
2015-01-03, 00:39:05,VALID,1010.36,VALID,0,INVALID,137.027,VALID,0,VALID,22.9731,VALID,349,VALID,0,
2015-01-03, 00:40:05,VALID,1010.33,VALID,0,INVALID,137.134,VALID,0,VALID,22.9536,VALID,349,VALID,0,
2015-01-03, 00:41:05,VALID,1010.35,VALID,0,INVALID,137.149,VALID,0,VALID,22.9342,VALID,349,VALID,0,
2015-01-03, 00:42:05,VALID,1010.35,VALID,0,INVALID,137.195,VALID,0.112112,VALID,22.9147,VALID,349,VALID,0,
2015-01-03, 00:43:05,VALID,1010.33,VALID,0,INVALID,137.149,VALID,0,VALID,22.9342,VALID,349,VALID,0,
2015-01-03, 00:44:05,VALID,1010.29,VALID,0,INVALID,137.126,VALID,0,VALID,22.9536,VALID,349,VALID,0,
2015-01-03, 00:45:05,VALID,1010.25,VALID,0,INVALID,137.134,VALID,0,VALID,22.9731,VALID,349,VALID,0,
2015-01-03, 00:46:05,VALID,1010.24,VALID,0,INVALID,137.111,VALID,0,VALID,22.9536,VALID,349,VALID,0,
2015-01-03, 00:47:05,VALID,1010.21,VALID,0,INVALID,137.096,VALID,0,VALID,22.9536,VALID,349,VALID,0,
2015-01-03, 00:48:05,VALID,1010.19,VALID,0,INVALID,137.027,VALID,0,VALID,22.9536,VALID,349,VALID,0,
2015-01-03, 00:49:05,VALID,1010.17,VALID,0,INVALID,137.088,VALID,0.112112,VALID,22.9147,VALID,349,VALID,0,
2015-01-03, 00:50:05,VALID,1010.19,VALID,0,INVALID,137.035,VALID,0,VALID,22.9147,VALID,349,VALID,0,
2015-01-03, 00:51:05,VALID,1010.15,VALID,0,INVALID,136.974,VALID,0,VALID,22.9147,VALID,349,VALID,0,
2015-01-03, 00:52:05,VALID,1010.15,VALID,0,INVALID,136.943,VALID,0,VALID,22.9147,VALID,349,VALID,0,
2015-01-03, 00:53:05,VALID,1010.13,VALID,0,INVALID,136.928,VALID,0,VALID,22.9147,VALID,349,VALID,0,
2015-01-03, 00:54:05,VALID,1010.12,VALID,0,INVALID,136.859,VALID,0,VALID,22.9147,VALID,349,VALID,0,
2015-01-03, 00:55:05,VALID,1010.1,VALID,0,INVALID,136.875,VALID,0,VALID,22.9147,VALID,349,VALID,0,
2015-01-03, 00:56:05,VALID,1010.08,VALID,0,INVALID,136.791,VALID,0,VALID,22.8952,VALID,349,VALID,0,
2015-01-03, 00:57:05,VALID,1010.07,VALID,0,INVALID,136.707,VALID,0.112112,VALID,22.9147,VALID,349,VALID,0,
2015-01-03, 00:58:05,VALID,1010.07,VALID,0,INVALID,136.722,VALID,0,VALID,22.9147,VALID,349,VALID,0,
2015-01-03, 00:59:05,VALID,1010.03,VALID,0,INVALID,136.684,VALID,0.112112,VALID,22.8935,VALID,349,VALID,0,
2015-01-03, 01:00:05,VALID,1010,VALID,0,INVALID,136.699,VALID,0.112112,VALID,22.8952,VALID,349,VALID,0,
2015-01-03, 01:01:05,VALID,1009.97,VALID,0,INVALID,136.692,VALID,0,VALID,22.8757,VALID,349,VALID,0,
2015-01-03, 01:02:05,VALID,1009.94,VALID,0,INVALID,136.654,VALID,0,VALID,22.8757,VALID,349,VALID,0,
2015-01-03, 01:03:05,VALID,1009.89,VALID,0,INVALID,136.6,VALID,0.112112,VALID,22.9147,VALID,349,VALID,0,
2015-01-03, 01:04:05,VALID,1009.85,VALID,0,INVALID,136.486,VALID,0,VALID,22.9342,VALID,349,VALID,0,
2015-01-03, 01:05:05,VALID,1009.86,VALID,0,INVALID,136.371,VALID,0.112112,VALID,22.9731,VALID,349,VALID,0,
2015-01-03, 01:06:05,VALID,1009.86,VALID,0,INVALID,136.303,VALID,0.112112,VALID,22.9926,VALID,349,VALID,0,
2015-01-03, 01:07:05,VALID,1009.83,VALID,0,INVALID,136.173,VALID,0.112112,VALID,23.0121,VALID,349,VALID,0,
2015-01-03, 01:08:05,VALID,1009.85,VALID,0,INVALID,136.104,VALID,0,VALID,23.0121,VALID,349,VALID,0,
2015-01-03, 01:09:05,VALID,1009.84,VALID,0,INVALID,136.043,VALID,0,VALID,23.0138,VALID,349,VALID,0,
2015-01-03, 01:10:05,VALID,1009.85,VALID,0,INVALID,136.028,VALID,0.112112,VALID,22.9731,VALID,349,VALID,0,
2015-01-03, 01:11:05,VALID,1009.87,VALID,0,INVALID,136.059,VALID,0,VALID,22.9536,VALID,349,VALID,0,
2015-01-03, 01:12:05,VALID,1009.83,VALID,0,INVALID,136.074,VALID,0,VALID,22.9342,VALID,349,VALID,0,
2015-01-03, 01:13:05,VALID,1009.8,VALID,0,INVALID,136.051,VALID,0,VALID,22.9342,VALID,349,VALID,0,
2015-01-03, 01:14:05,VALID,1009.81,VALID,0,INVALID,136.074,VALID,0,VALID,22.9536,VALID,349,VALID,0,
2015-01-03, 01:15:05,VALID,1009.78,VALID,0,INVALID,136.059,VALID,0,VALID,22.9536,VALID,349,VALID,0,
2015-01-03, 01:16:05,VALID,1009.78,VALID,0,INVALID,136.082,VALID,0,VALID,22.9342,VALID,349,VALID,0,
2015-01-03, 01:17:05,VALID,1009.75,VALID,0,INVALID,136.112,VALID,0,VALID,22.9147,VALID,349,VALID,0,
2015-01-03, 01:18:05,VALID,1009.75,VALID,0,INVALID,136.082,VALID,0,VALID,22.9359,VALID,349,VALID,0,
2015-01-03, 01:19:05,VALID,1009.75,VALID,0,INVALID,136.104,VALID,0,VALID,22.9147,VALID,349,VALID,0,
2015-01-03, 01:20:05,VALID,1009.74,VALID,0,INVALID,136.127,VALID,0,VALID,22.8952,VALID,349,VALID,0,
2015-01-03, 01:21:05,VALID,1009.74,VALID,0,INVALID,136.173,VALID,0,VALID,22.8952,VALID,349,VALID,0,
2015-01-03, 01:22:05,VALID,1009.72,VALID,0,INVALID,136.188,VALID,0,VALID,22.8969,VALID,349,VALID,0,
2015-01-03, 01:23:05,VALID,1009.71,VALID,0,INVALID,136.196,VALID,0.112112,VALID,22.8757,VALID,349,VALID,0,
2015-01-03, 01:24:05,VALID,1009.7,VALID,0,INVALID,136.188,VALID,0,VALID,22.8757,VALID,349,VALID,0,
2015-01-03, 01:25:05,VALID,1009.64,VALID,0,INVALID,136.181,VALID,0.112112,VALID,22.8952,VALID,349,VALID,0,
2015-01-03, 01:26:05,VALID,1009.61,VALID,0,INVALID,136.234,VALID,0,VALID,22.8757,VALID,349,VALID,0,
2015-01-03, 01:27:05,VALID,1009.57,VALID,0,INVALID,136.303,VALID,0,VALID,22.8775,VALID,349,VALID,0,
2015-01-03, 01:28:05,VALID,1009.55,VALID,0,INVALID,136.28,VALID,0,VALID,22.8368,VALID,349,VALID,0,
2015-01-03, 01:29:05,VALID,1009.49,VALID,0,INVALID,136.348,VALID,0.112112,VALID,22.8368,VALID,349,VALID,0,
2015-01-03, 01:30:05,VALID,1009.47,VALID,0,INVALID,136.402,VALID,0,VALID,22.8173,VALID,349,VALID,0,
2015-01-03, 01:31:05,VALID,1009.47,VALID,0,INVALID,136.47,VALID,0,VALID,22.7783,VALID,349,VALID,0,
2015-01-03, 01:32:05,VALID,1009.45,VALID,0,INVALID,136.478,VALID,0,VALID,22.7588,VALID,349,VALID,0,
2015-01-03, 01:33:05,VALID,1009.44,VALID,0,INVALID,136.463,VALID,0.112112,VALID,22.7606,VALID,349,VALID,0,
2015-01-03, 01:34:05,VALID,1009.42,VALID,0,INVALID,136.47,VALID,0,VALID,22.7588,VALID,349,VALID,0,
2015-01-03, 01:35:05,VALID,1009.4,VALID,0,INVALID,136.47,VALID,0,VALID,22.7394,VALID,349,VALID,0,
2015-01-03, 01:36:05,VALID,1009.41,VALID,0,INVALID,136.486,VALID,0.112112,VALID,22.7394,VALID,349,VALID,0,
2015-01-03, 01:37:05,VALID,1009.41,VALID,0,INVALID,136.516,VALID,0,VALID,22.7199,VALID,349,VALID,0,
2015-01-03, 01:38:05,VALID,1009.41,VALID,0,INVALID,136.516,VALID,0,VALID,22.7199,VALID,349,VALID,0,
2015-01-03, 01:39:05,VALID,1009.42,VALID,0,INVALID,136.493,VALID,0,VALID,22.7004,VALID,349,VALID,0,
2015-01-03, 01:40:05,VALID,1009.42,VALID,0,INVALID,136.501,VALID,0,VALID,22.6792,VALID,349,VALID,0,
2015-01-03, 01:41:05,VALID,1009.42,VALID,0,INVALID,136.478,VALID,0.112112,VALID,22.6597,VALID,349,VALID,0,
2015-01-03, 01:42:05,VALID,1009.42,VALID,0,INVALID,136.509,VALID,0.112112,VALID,22.6614,VALID,349,VALID,0,
2015-01-03, 01:43:05,VALID,1009.43,VALID,0,INVALID,136.493,VALID,0,VALID,22.6614,VALID,349,VALID,0,
2015-01-03, 01:44:05,VALID,1009.39,VALID,0,INVALID,136.516,VALID,0,VALID,22.642,VALID,349,VALID,0,
2015-01-03, 01:45:05,VALID,1009.43,VALID,0,INVALID,136.524,VALID,0,VALID,22.6437,VALID,349,VALID,0,
2015-01-03, 01:46:05,VALID,1009.42,VALID,0,INVALID,136.547,VALID,0,VALID,22.6225,VALID,349,VALID,0,
2015-01-03, 01:47:05,VALID,1009.44,VALID,0,INVALID,136.631,VALID,0.112112,VALID,22.5623,VALID,349,VALID,0,
2015-01-03, 01:48:05,VALID,1009.39,VALID,0,INVALID,136.654,VALID,0.112112,VALID,22.564,VALID,349,VALID,0,
2015-01-03, 01:49:05,VALID,1009.37,VALID,0,INVALID,136.654,VALID,0,VALID,22.5446,VALID,349,VALID,0,
2015-01-03, 01:50:05,VALID,1009.34,VALID,0,INVALID,136.676,VALID,0,VALID,22.5251,VALID,349,VALID,0,
2015-01-03, 01:51:05,VALID,1009.31,VALID,0,INVALID,136.676,VALID,0,VALID,22.5251,VALID,349,VALID,0,
2015-01-03, 01:52:05,VALID,1009.3,VALID,0,INVALID,136.623,VALID,0.112112,VALID,22.5251,VALID,349,VALID,0,
2015-01-03, 01:53:05,VALID,1009.3,VALID,0,INVALID,136.6,VALID,0.112112,VALID,22.5056,VALID,349,VALID,0,
2015-01-03, 01:54:05,VALID,1009.3,VALID,0,INVALID,136.577,VALID,0,VALID,22.5056,VALID,349,VALID,0,
2015-01-03, 01:55:05,VALID,1009.29,VALID,0,INVALID,136.6,VALID,0,VALID,22.4861,VALID,349,VALID,0,
2015-01-03, 01:56:05,VALID,1009.28,VALID,0,INVALID,136.646,VALID,0,VALID,22.4667,VALID,349,VALID,0,
2015-01-03, 01:57:05,VALID,1009.31,VALID,0,INVALID,136.57,VALID,0,VALID,22.4667,VALID,349,VALID,0,
2015-01-03, 01:58:05,VALID,1009.28,VALID,0,INVALID,136.455,VALID,0,VALID,22.5056,VALID,349,VALID,0,
2015-01-03, 01:59:05,VALID,1009.27,VALID,0,INVALID,136.341,VALID,0,VALID,22.5251,VALID,349,VALID,0,
2015-01-03, 02:00:05,VALID,1009.29,VALID,0,INVALID,136.287,VALID,0,VALID,22.5446,VALID,349,VALID,0,
2015-01-03, 02:01:05,VALID,1009.27,VALID,0,INVALID,136.265,VALID,0,VALID,22.5251,VALID,349,VALID,0,
2015-01-03, 02:02:05,VALID,1009.27,VALID,0,INVALID,136.188,VALID,0,VALID,22.5268,VALID,349,VALID,0,
2015-01-03, 02:03:05,VALID,1009.24,VALID,0,INVALID,136.15,VALID,0,VALID,22.5056,VALID,349,VALID,0,
2015-01-03, 02:04:05,VALID,1009.28,VALID,0,INVALID,136.051,VALID,0,VALID,22.5251,VALID,349,VALID,0,
2015-01-03, 02:05:05,VALID,1009.25,VALID,0,INVALID,135.944,VALID,0,VALID,22.5251,VALID,349,VALID,0,
2015-01-03, 02:06:05,VALID,1009.24,VALID,0,INVALID,135.921,VALID,0,VALID,22.5251,VALID,349,VALID,0,
2015-01-03, 02:07:05,VALID,1009.24,VALID,0,INVALID,135.83,VALID,0,VALID,22.5251,VALID,349,VALID,0,
2015-01-03, 02:08:05,VALID,1009.24,VALID,0,INVALID,135.746,VALID,0,VALID,22.5251,VALID,349,VALID,0,
2015-01-03, 02:09:05,VALID,1009.26,VALID,0,INVALID,135.67,VALID,0,VALID,22.5658,VALID,349,VALID,0,
2015-01-03, 02:10:05,VALID,1009.23,VALID,0,INVALID,135.655,VALID,0,VALID,22.5251,VALID,349,VALID,0,
2015-01-03, 02:11:05,VALID,1009.25,VALID,0,INVALID,135.632,VALID,0,VALID,22.5251,VALID,349,VALID,0,
2015-01-03, 02:12:05,VALID,1009.27,VALID,0,INVALID,135.54,VALID,0,VALID,22.5039,VALID,349,VALID,0,
2015-01-03, 02:13:05,VALID,1009.27,VALID,0,INVALID,135.487,VALID,0,VALID,22.5251,VALID,349,VALID,0,
2015-01-03, 02:14:05,VALID,1009.27,VALID,0,INVALID,135.472,VALID,0,VALID,22.5251,VALID,349,VALID,0,
2015-01-03, 02:15:05,VALID,1009.29,VALID,0,INVALID,135.456,VALID,0,VALID,22.4844,VALID,349,VALID,0,
2015-01-03, 02:16:05,VALID,1009.29,VALID,0,INVALID,135.411,VALID,0,VALID,22.5251,VALID,349,VALID,0,
2015-01-03, 02:17:05,VALID,1009.29,VALID,0,INVALID,135.357,VALID,0,VALID,22.5446,VALID,349,VALID,0,
2015-01-03, 02:18:05,VALID,1009.27,VALID,0,INVALID,135.273,VALID,0,VALID,22.5446,VALID,349,VALID,0,
2015-01-03, 02:19:05,VALID,1009.29,VALID,0,INVALID,135.212,VALID,0,VALID,22.564,VALID,349,VALID,0,
2015-01-03, 02:20:05,VALID,1009.3,VALID,0,INVALID,135.121,VALID,0,VALID,22.564,VALID,349,VALID,0,
2015-01-03, 02:21:05,VALID,1009.29,VALID,0,INVALID,135.044,VALID,0,VALID,22.5835,VALID,349,VALID,0,
2015-01-03, 02:22:05,VALID,1009.3,VALID,0,INVALID,134.991,VALID,0,VALID,22.5835,VALID,349,VALID,0,
2015-01-03, 02:23:05,VALID,1009.29,VALID,0,INVALID,134.93,VALID,0.112112,VALID,22.603,VALID,349,VALID,0,
2015-01-03, 02:24:05,VALID,1009.24,VALID,0,INVALID,134.93,VALID,0,VALID,22.603,VALID,349,VALID,0,
2015-01-03, 02:25:05,VALID,1009.24,VALID,0,INVALID,134.831,VALID,0,VALID,22.6242,VALID,349,VALID,0,
2015-01-03, 02:26:05,VALID,1009.21,VALID,0,INVALID,134.747,VALID,0,VALID,22.642,VALID,349,VALID,0,
2015-01-03, 02:27:05,VALID,1009.24,VALID,0,INVALID,134.64,VALID,0,VALID,22.6809,VALID,349,VALID,0,
2015-01-03, 02:28:05,VALID,1009.25,VALID,0,INVALID,134.556,VALID,0,VALID,22.6809,VALID,349,VALID,0,
2015-01-03, 02:29:05,VALID,1009.29,VALID,0,INVALID,134.45,VALID,0,VALID,22.7021,VALID,349,VALID,0,
2015-01-03, 02:30:05,VALID,1009.26,VALID,0,INVALID,134.343,VALID,0,VALID,22.7004,VALID,349,VALID,0,
2015-01-03, 02:31:05,VALID,1009.27,VALID,0,INVALID,134.206,VALID,0,VALID,22.6792,VALID,349,VALID,0,
2015-01-03, 02:32:05,VALID,1009.25,VALID,0,INVALID,134.145,VALID,0,VALID,22.7199,VALID,349,VALID,0,
2015-01-03, 02:33:05,VALID,1009.27,VALID,0,INVALID,134.061,VALID,0,VALID,22.7199,VALID,349,VALID,0,
2015-01-03, 02:34:05,VALID,1009.25,VALID,0,INVALID,134.023,VALID,0,VALID,22.7199,VALID,349,VALID,0,
2015-01-03, 02:35:05,VALID,1009.25,VALID,0,INVALID,133.954,VALID,0,VALID,22.7199,VALID,349,VALID,0,
2015-01-03, 02:36:05,VALID,1009.26,VALID,0,INVALID,133.847,VALID,0,VALID,22.7606,VALID,349,VALID,0,
2015-01-03, 02:37:05,VALID,1009.22,VALID,0,INVALID,133.862,VALID,0,VALID,22.7394,VALID,349,VALID,0,
2015-01-03, 02:38:05,VALID,1009.19,VALID,0,INVALID,133.809,VALID,0,VALID,22.7394,VALID,349,VALID,0,
2015-01-03, 02:39:05,VALID,1009.21,VALID,0,INVALID,133.801,VALID,0,VALID,22.7394,VALID,349,VALID,0,
2015-01-03, 02:40:05,VALID,1009.21,VALID,0,INVALID,133.801,VALID,0,VALID,22.7199,VALID,349,VALID,0,
2015-01-03, 02:41:05,VALID,1009.22,VALID,0,INVALID,133.801,VALID,0,VALID,22.7199,VALID,349,VALID,0,
2015-01-03, 02:42:05,VALID,1009.24,VALID,0,INVALID,133.832,VALID,0,VALID,22.7199,VALID,349,VALID,0,
2015-01-03, 02:43:05,VALID,1009.25,VALID,0,INVALID,133.847,VALID,0,VALID,22.7004,VALID,349,VALID,0,
2015-01-03, 02:44:05,VALID,1009.26,VALID,0,INVALID,133.878,VALID,0,VALID,22.7021,VALID,349,VALID,0,
2015-01-03, 02:45:05,VALID,1009.28,VALID,0,INVALID,133.908,VALID,0,VALID,22.6826,VALID,349,VALID,0,
2015-01-03, 02:46:05,VALID,1009.29,VALID,0,INVALID,133.832,VALID,0,VALID,22.6614,VALID,349,VALID,0,
2015-01-03, 02:47:05,VALID,1009.28,VALID,0,INVALID,133.763,VALID,0,VALID,22.7004,VALID,349,VALID,0,
2015-01-03, 02:48:05,VALID,1009.25,VALID,0,INVALID,133.733,VALID,0,VALID,22.7199,VALID,349,VALID,0,
2015-01-03, 02:49:05,VALID,1009.23,VALID,0,INVALID,133.794,VALID,0,VALID,22.7199,VALID,349,VALID,0,
2015-01-03, 02:50:04,VALID,1009.23,VALID,0,INVALID,133.901,VALID,0,VALID,22.6809,VALID,349,VALID,0,
2015-01-03, 02:51:04,VALID,1009.21,VALID,0,INVALID,133.969,VALID,0,VALID,22.6826,VALID,349,VALID,0,
2015-01-03, 02:52:04,VALID,1009.23,VALID,0,INVALID,134.045,VALID,0,VALID,22.642,VALID,349,VALID,0,
2015-01-03, 02:53:04,VALID,1009.21,VALID,0,INVALID,134.107,VALID,0,VALID,22.6225,VALID,349,VALID,0,
2015-01-03, 02:54:04,VALID,1009.22,VALID,0,INVALID,134.152,VALID,0,VALID,22.6437,VALID,349,VALID,0,
2015-01-03, 02:55:04,VALID,1009.23,VALID,0,INVALID,134.198,VALID,0,VALID,22.603,VALID,349,VALID,0,
2015-01-03, 02:56:04,VALID,1009.26,VALID,0,INVALID,134.267,VALID,0,VALID,22.603,VALID,349,VALID,0,
2015-01-03, 02:57:04,VALID,1009.29,VALID,0,INVALID,134.358,VALID,0,VALID,22.564,VALID,349,VALID,0,
2015-01-03, 02:58:04,VALID,1009.27,VALID,0,INVALID,134.45,VALID,0,VALID,22.564,VALID,349,VALID,0,
2015-01-03, 02:59:04,VALID,1009.29,VALID,0,INVALID,134.488,VALID,0,VALID,22.564,VALID,349,VALID,0,
2015-01-03, 03:00:04,VALID,1009.29,VALID,0,INVALID,134.503,VALID,0,VALID,22.5446,VALID,349,VALID,0,
2015-01-03, 03:01:04,VALID,1009.35,VALID,0,INVALID,134.518,VALID,0.112112,VALID,22.5234,VALID,349,VALID,0,
2015-01-03, 03:02:04,VALID,1009.33,VALID,0,INVALID,134.534,VALID,0,VALID,22.5446,VALID,349,VALID,0,
2015-01-03, 03:03:04,VALID,1009.35,VALID,0,INVALID,134.549,VALID,0,VALID,22.5446,VALID,349,VALID,0,
2015-01-03, 03:04:04,VALID,1009.38,VALID,0,INVALID,134.648,VALID,0,VALID,22.5251,VALID,349,VALID,0,
2015-01-03, 03:05:04,VALID,1009.36,VALID,0,INVALID,134.587,VALID,0.112112,VALID,22.5251,VALID,349,VALID,0,
2015-01-03, 03:06:04,VALID,1009.35,VALID,0,INVALID,134.671,VALID,0,VALID,22.5056,VALID,349,VALID,0,
2015-01-03, 03:07:04,VALID,1009.38,VALID,0,INVALID,134.694,VALID,0,VALID,22.4844,VALID,349,VALID,0,
2015-01-03, 03:08:04,VALID,1009.4,VALID,0,INVALID,134.77,VALID,0,VALID,22.4861,VALID,349,VALID,0,
2015-01-03, 03:09:04,VALID,1009.4,VALID,0,INVALID,134.808,VALID,0,VALID,22.4667,VALID,349,VALID,0,
2015-01-03, 03:10:04,VALID,1009.44,VALID,0,INVALID,134.831,VALID,0,VALID,22.4667,VALID,349,VALID,0,
2015-01-03, 03:11:04,VALID,1009.43,VALID,0,INVALID,134.755,VALID,0,VALID,22.4861,VALID,349,VALID,0,
2015-01-03, 03:12:04,VALID,1009.46,VALID,0,INVALID,134.739,VALID,0,VALID,22.5056,VALID,349,VALID,0,
2015-01-03, 03:13:04,VALID,1009.45,VALID,0,INVALID,134.739,VALID,0,VALID,22.5056,VALID,349,VALID,0,
2015-01-03, 03:14:04,VALID,1009.48,VALID,0,INVALID,134.747,VALID,0.112112,VALID,22.5039,VALID,349,VALID,0,
2015-01-03, 03:15:04,VALID,1009.48,VALID,0,INVALID,134.785,VALID,0.112112,VALID,22.5039,VALID,349,VALID,0,
2015-01-03, 03:16:04,VALID,1009.5,VALID,0,INVALID,134.778,VALID,0.112112,VALID,22.4861,VALID,349,VALID,0,
2015-01-03, 03:17:04,VALID,1009.48,VALID,0,INVALID,134.793,VALID,0,VALID,22.465,VALID,349,VALID,0,
2015-01-03, 03:18:04,VALID,1009.5,VALID,0,INVALID,134.778,VALID,0.112112,VALID,22.4861,VALID,349,VALID,0,
2015-01-03, 03:19:04,VALID,1009.48,VALID,0,INVALID,134.724,VALID,0,VALID,22.5056,VALID,349,VALID,0,
2015-01-03, 03:20:04,VALID,1009.49,VALID,0,INVALID,134.701,VALID,0,VALID,22.4861,VALID,349,VALID,0,
2015-01-03, 03:21:04,VALID,1009.48,VALID,0,INVALID,134.709,VALID,0.112112,VALID,22.5056,VALID,349,VALID,0,
2015-01-03, 03:22:04,VALID,1009.48,VALID,0,INVALID,134.701,VALID,0.112112,VALID,22.5056,VALID,349,VALID,0,
2015-01-03, 03:23:04,VALID,1009.48,VALID,0,INVALID,134.732,VALID,0.112112,VALID,22.5056,VALID,349,VALID,0,
2015-01-03, 03:24:04,VALID,1009.51,VALID,0,INVALID,134.747,VALID,0,VALID,22.4861,VALID,349,VALID,0,
2015-01-03, 03:25:04,VALID,1009.52,VALID,0,INVALID,134.724,VALID,0,VALID,22.5056,VALID,349,VALID,0,
2015-01-03, 03:26:04,VALID,1009.52,VALID,0,INVALID,134.663,VALID,0.112112,VALID,22.465,VALID,349,VALID,0,
2015-01-03, 03:27:04,VALID,1009.53,VALID,0,INVALID,134.625,VALID,0,VALID,22.5056,VALID,349,VALID,0,
2015-01-03, 03:28:04,VALID,1009.53,VALID,0,INVALID,134.663,VALID,0,VALID,22.5056,VALID,349,VALID,0,
2015-01-03, 03:29:04,VALID,1009.58,VALID,0,INVALID,134.648,VALID,0.112112,VALID,22.465,VALID,349,VALID,0,
2015-01-03, 03:30:04,VALID,1009.57,VALID,0,INVALID,134.625,VALID,0,VALID,22.5056,VALID,349,VALID,0,
2015-01-03, 03:31:04,VALID,1009.58,VALID,0,INVALID,134.61,VALID,0,VALID,22.5056,VALID,349,VALID,0,
2015-01-03, 03:32:04,VALID,1009.57,VALID,0,INVALID,134.625,VALID,0,VALID,22.5056,VALID,349,VALID,0,
2015-01-03, 03:33:04,VALID,1009.56,VALID,0,INVALID,134.686,VALID,0.112112,VALID,22.5056,VALID,349,VALID,0,
2015-01-03, 03:34:04,VALID,1009.58,VALID,0,INVALID,134.709,VALID,0,VALID,22.4861,VALID,349,VALID,0,
2015-01-03, 03:35:04,VALID,1009.58,VALID,0,INVALID,134.724,VALID,0,VALID,22.4861,VALID,349,VALID,0,
2015-01-03, 03:36:04,VALID,1009.54,VALID,0,INVALID,134.739,VALID,0,VALID,22.4667,VALID,349,VALID,0,
2015-01-03, 03:37:04,VALID,1009.54,VALID,0,INVALID,134.747,VALID,0,VALID,22.4667,VALID,349,VALID,0,
2015-01-03, 03:38:04,VALID,1009.53,VALID,0,INVALID,134.762,VALID,0,VALID,22.4667,VALID,349,VALID,0,
2015-01-03, 03:39:04,VALID,1009.54,VALID,0,INVALID,134.778,VALID,0,VALID,22.4455,VALID,349,VALID,0,
2015-01-03, 03:40:04,VALID,1009.51,VALID,0,INVALID,134.793,VALID,0.112112,VALID,22.4455,VALID,349,VALID,0,
2015-01-03, 03:41:04,VALID,1009.53,VALID,0,INVALID,134.823,VALID,0.112112,VALID,22.4861,VALID,349,VALID,0,
2015-01-03, 03:42:04,VALID,1009.5,VALID,0,INVALID,134.831,VALID,0.112112,VALID,22.465,VALID,349,VALID,0,
2015-01-03, 03:43:04,VALID,1009.51,VALID,0,INVALID,134.823,VALID,0,VALID,22.4667,VALID,349,VALID,0,
2015-01-03, 03:44:04,VALID,1009.57,VALID,0,INVALID,134.861,VALID,0,VALID,22.4472,VALID,349,VALID,0,
2015-01-03, 03:45:04,VALID,1009.57,VALID,0,INVALID,134.9,VALID,0.112112,VALID,22.4277,VALID,349,VALID,0,
2015-01-03, 03:46:04,VALID,1009.53,VALID,0,INVALID,134.961,VALID,0,VALID,22.4082,VALID,349,VALID,0,
2015-01-03, 03:47:04,VALID,1009.54,VALID,0,INVALID,135.022,VALID,0,VALID,22.3887,VALID,349,VALID,0,
2015-01-03, 03:48:04,VALID,1009.52,VALID,0,INVALID,135.105,VALID,0,VALID,22.3887,VALID,349,VALID,0,
2015-01-03, 03:49:04,VALID,1009.53,VALID,0,INVALID,135.159,VALID,0,VALID,22.3693,VALID,349,VALID,0,
2015-01-03, 03:50:04,VALID,1009.56,VALID,0,INVALID,135.25,VALID,0,VALID,22.3498,VALID,349,VALID,0,
2015-01-03, 03:51:04,VALID,1009.56,VALID,0,INVALID,135.38,VALID,0,VALID,22.3498,VALID,349,VALID,0,
2015-01-03, 03:52:04,VALID,1009.54,VALID,0,INVALID,135.38,VALID,0,VALID,22.3303,VALID,349,VALID,0,